Location: Burgwalden
(48.2830°N, 10.7576°E)
Time: 03:17:39
(UTC+00:00)

USA 281 - Pass Details

Date: 26 September 2023
Orbit: 1077 x 1081 km, 106.0° (Epoch: 19 November)

Event Time Altitude Azimuth Distance (km) Brightness Sun altitude
Rises 03:22:18 0° 21° (NNE) 3,892 6.7 -18.2°
Reaches altitude 10° 03:25:15 10° 9° (N) 2,933 5.9 -17.7°
Maximum altitude 03:30:25 26° 317° (NW) 2,008 4.4 -16.9°
Enters shadow 03:33:15 19° 282° (WNW) 2,322 4.5 -16.5°
